Year,Month,Day,Hour,Minute,Value (Times are PST for temperature in C)
2007,04,06,00,00,10.60
2007,04,06,00,01,10.60
2007,04,06,00,02,10.60
2007,04,06,00,03,10.60
2007,04,06,00,04,10.60
2007,04,06,00,05,10.60
2007,04,06,00,06,10.60
2007,04,06,00,07,10.50
2007,04,06,00,08,10.40
2007,04,06,00,09,10.40
2007,04,06,00,10,10.40
2007,04,06,00,11,10.40
2007,04,06,00,12,10.40
2007,04,06,00,13,10.40
2007,04,06,00,14,10.40
2007,04,06,00,15,10.40
2007,04,06,00,16,10.40
2007,04,06,00,17,10.40
2007,04,06,00,18,10.40
2007,04,06,00,19,10.40
2007,04,06,00,20,10.40
2007,04,06,00,21,10.40
2007,04,06,00,22,10.40
2007,04,06,00,23,10.60
2007,04,06,00,24,10.60
2007,04,06,00,25,10.60
2007,04,06,00,26,10.60
2007,04,06,00,27,10.50
2007,04,06,00,28,10.40
2007,04,06,00,29,10.40
2007,04,06,00,30,10.40
2007,04,06,00,31,10.40
2007,04,06,00,32,10.40
2007,04,06,00,33,10.40
2007,04,06,00,34,10.40
2007,04,06,00,35,10.40
2007,04,06,00,36,10.40
2007,04,06,00,37,10.40
2007,04,06,00,38,10.40
2007,04,06,00,39,10.40
2007,04,06,00,40,10.40
2007,04,06,00,41,10.30
2007,04,06,00,42,10.30
2007,04,06,00,43,10.30
2007,04,06,00,44,10.30
2007,04,06,00,45,10.30
2007,04,06,00,46,10.30
2007,04,06,00,47,10.30
2007,04,06,00,48,10.20
2007,04,06,00,49,10.20
2007,04,06,00,50,10.20
2007,04,06,00,51,10.20
2007,04,06,00,52,10.10
2007,04,06,00,53,10.10
2007,04,06,00,54,10.00
2007,04,06,00,55,9.90
2007,04,06,00,56,9.90
2007,04,06,00,57,9.80
2007,04,06,00,58,9.80
2007,04,06,00,59,9.70
2007,04,06,01,00,9.70
2007,04,06,01,01,9.70
2007,04,06,01,02,9.70
2007,04,06,01,03,9.70
2007,04,06,01,04,9.70
2007,04,06,01,05,9.70
2007,04,06,01,06,9.70
2007,04,06,01,07,9.70
2007,04,06,01,08,9.70
2007,04,06,01,09,9.70
2007,04,06,01,10,9.70
2007,04,06,01,11,9.70
2007,04,06,01,12,9.70
2007,04,06,01,13,9.70
2007,04,06,01,14,9.70
2007,04,06,01,15,9.70
2007,04,06,01,16,9.70
2007,04,06,01,17,9.70
2007,04,06,01,18,9.70
2007,04,06,01,19,9.80
2007,04,06,01,20,9.80
2007,04,06,01,21,9.80
2007,04,06,01,22,9.90
2007,04,06,01,23,9.90
2007,04,06,01,24,9.90
2007,04,06,01,25,9.90
2007,04,06,01,26,9.90
2007,04,06,01,27,9.90
2007,04,06,01,28,9.90
2007,04,06,01,29,9.90
2007,04,06,01,30,9.90
2007,04,06,01,31,9.90
2007,04,06,01,32,9.90
2007,04,06,01,33,9.90
2007,04,06,01,34,9.90
2007,04,06,01,35,9.90
2007,04,06,01,36,9.90
2007,04,06,01,37,9.90
2007,04,06,01,38,9.90
2007,04,06,01,39,9.90
2007,04,06,01,40,9.90
2007,04,06,01,41,9.90
2007,04,06,01,42,9.80
2007,04,06,01,43,9.80
2007,04,06,01,44,9.80
2007,04,06,01,45,9.80
2007,04,06,01,46,9.80
2007,04,06,01,47,9.80
2007,04,06,01,48,9.80
2007,04,06,01,49,9.80
2007,04,06,01,50,9.80
2007,04,06,01,51,9.80
2007,04,06,01,52,9.90
2007,04,06,01,53,9.90
2007,04,06,01,54,9.90
2007,04,06,01,55,9.90
2007,04,06,01,56,9.90
2007,04,06,01,57,9.90
2007,04,06,01,58,9.90
2007,04,06,01,59,9.90
2007,04,06,02,00,9.90
2007,04,06,02,01,9.90
2007,04,06,02,02,9.90
2007,04,06,02,03,9.90
2007,04,06,02,04,9.90
2007,04,06,02,05,9.90
2007,04,06,02,06,9.90
2007,04,06,02,07,9.80
2007,04,06,02,08,9.80
2007,04,06,02,09,9.70
2007,04,06,02,10,9.70
2007,04,06,02,11,9.70
2007,04,06,02,12,9.70
2007,04,06,02,13,9.70
2007,04,06,02,14,9.70
2007,04,06,02,15,9.70
2007,04,06,02,16,9.70
2007,04,06,02,17,9.70
2007,04,06,02,18,9.70
2007,04,06,02,19,9.70
2007,04,06,02,20,9.70
2007,04,06,02,21,9.70
2007,04,06,02,22,9.60
2007,04,06,02,23,9.60
2007,04,06,02,24,9.60
2007,04,06,02,25,9.60
2007,04,06,02,26,9.60
2007,04,06,02,27,9.60
2007,04,06,02,28,9.60
2007,04,06,02,29,9.60
2007,04,06,02,30,9.60
2007,04,06,02,31,9.60
2007,04,06,02,32,9.60
2007,04,06,02,33,9.60
2007,04,06,02,34,9.60
2007,04,06,02,35,9.60
2007,04,06,02,36,9.60
2007,04,06,02,37,9.70
2007,04,06,02,38,9.70
2007,04,06,02,39,9.70
2007,04,06,02,40,9.70
2007,04,06,02,41,9.70
2007,04,06,02,42,9.70
2007,04,06,02,43,9.70
2007,04,06,02,44,9.70
2007,04,06,02,45,9.70
2007,04,06,02,46,9.70
2007,04,06,02,47,9.70
2007,04,06,02,48,9.70
2007,04,06,02,49,9.70
2007,04,06,02,50,9.70
2007,04,06,02,51,9.70
2007,04,06,02,52,9.70
2007,04,06,02,53,9.70
2007,04,06,02,54,9.70
2007,04,06,02,55,9.70
2007,04,06,02,56,9.70
2007,04,06,02,57,9.70
2007,04,06,02,58,9.70
2007,04,06,02,59,9.70
2007,04,06,03,00,9.80
2007,04,06,03,01,9.80
2007,04,06,03,02,9.90
2007,04,06,03,03,9.90
2007,04,06,03,04,9.90
2007,04,06,03,05,9.90
2007,04,06,03,06,9.90
2007,04,06,03,07,9.90
2007,04,06,03,08,9.90
2007,04,06,03,09,9.90
2007,04,06,03,10,9.90
2007,04,06,03,11,9.90
2007,04,06,03,12,9.90
2007,04,06,03,13,9.90
2007,04,06,03,14,9.90
2007,04,06,03,15,9.80
2007,04,06,03,16,9.80
2007,04,06,03,17,9.80
2007,04,06,03,18,9.80
2007,04,06,03,19,9.80
2007,04,06,03,20,9.80
2007,04,06,03,21,9.80
2007,04,06,03,22,9.80
2007,04,06,03,23,9.90
2007,04,06,03,24,9.90
2007,04,06,03,25,9.90
2007,04,06,03,26,9.90
2007,04,06,03,27,9.90
2007,04,06,03,28,9.90
2007,04,06,03,29,9.90
2007,04,06,03,30,9.90
2007,04,06,03,31,9.90
2007,04,06,03,32,9.90
2007,04,06,03,33,9.90
2007,04,06,03,34,9.90
2007,04,06,03,35,9.90
2007,04,06,03,36,9.90
2007,04,06,03,37,9.90
2007,04,06,03,38,9.80
2007,04,06,03,39,9.80
2007,04,06,03,40,9.80
2007,04,06,03,41,9.70
2007,04,06,03,42,9.70
2007,04,06,03,43,9.70
2007,04,06,03,44,9.70
2007,04,06,03,45,9.70
2007,04,06,03,46,9.60
2007,04,06,03,47,9.60
2007,04,06,03,48,9.60
2007,04,06,03,49,9.60
2007,04,06,03,50,9.50
2007,04,06,03,51,9.50
2007,04,06,03,52,9.50
2007,04,06,03,53,9.50
2007,04,06,03,54,9.40
2007,04,06,03,55,9.40
2007,04,06,03,56,9.40
2007,04,06,03,57,9.40
2007,04,06,03,58,9.40
2007,04,06,03,59,9.40
2007,04,06,04,00,9.40
2007,04,06,04,01,9.50
2007,04,06,04,02,9.50
2007,04,06,04,03,9.50
2007,04,06,04,04,9.50
2007,04,06,04,05,9.50
2007,04,06,04,06,9.50
2007,04,06,04,07,9.50
2007,04,06,04,08,9.50
2007,04,06,04,09,9.50
2007,04,06,04,10,9.50
2007,04,06,04,11,9.50
2007,04,06,04,12,9.50
2007,04,06,04,13,9.50
2007,04,06,04,14,9.40
2007,04,06,04,15,9.40
2007,04,06,04,16,9.40
2007,04,06,04,17,9.40
2007,04,06,04,18,9.40
2007,04,06,04,19,9.40
2007,04,06,04,20,9.40
2007,04,06,04,21,9.30
2007,04,06,04,22,9.30
2007,04,06,04,23,9.30
2007,04,06,04,24,9.30
2007,04,06,04,25,9.30
2007,04,06,04,26,9.30
2007,04,06,04,27,9.30
2007,04,06,04,28,9.30
2007,04,06,04,29,9.30
2007,04,06,04,30,9.30
2007,04,06,04,31,9.30
2007,04,06,04,32,9.40
2007,04,06,04,33,9.40
2007,04,06,04,34,9.40
2007,04,06,04,35,9.40
2007,04,06,04,36,9.40
2007,04,06,04,37,9.40
2007,04,06,04,38,9.30
2007,04,06,04,39,9.30
2007,04,06,04,40,9.30
2007,04,06,04,41,9.30
2007,04,06,04,42,9.30
2007,04,06,04,43,9.20
2007,04,06,04,44,9.20
2007,04,06,04,45,9.20
2007,04,06,04,46,9.20
2007,04,06,04,47,9.20
2007,04,06,04,48,9.20
2007,04,06,04,49,9.20
2007,04,06,04,50,9.10
2007,04,06,04,51,9.10
2007,04,06,04,52,9.00
2007,04,06,04,53,9.00
2007,04,06,04,54,9.00
2007,04,06,04,55,9.00
2007,04,06,04,56,8.90
2007,04,06,04,57,8.90
2007,04,06,04,58,8.90
2007,04,06,04,59,8.90
2007,04,06,05,00,8.90
2007,04,06,05,01,8.90
2007,04,06,05,02,8.90
2007,04,06,05,03,8.90
2007,04,06,05,04,8.90
2007,04,06,05,05,9.00
2007,04,06,05,06,9.00
2007,04,06,05,07,9.00
2007,04,06,05,08,9.00
2007,04,06,05,09,9.10
2007,04,06,05,10,9.10
2007,04,06,05,11,9.10
2007,04,06,05,12,9.10
2007,04,06,05,13,9.20
2007,04,06,05,14,9.20
2007,04,06,05,15,9.20
2007,04,06,05,16,9.20
2007,04,06,05,17,9.20
2007,04,06,05,18,9.10
2007,04,06,05,19,9.10
2007,04,06,05,20,9.10
2007,04,06,05,21,9.10
2007,04,06,05,22,9.10
2007,04,06,05,23,9.10
2007,04,06,05,24,9.10
2007,04,06,05,25,9.10
2007,04,06,05,26,9.10
2007,04,06,05,27,9.10
2007,04,06,05,28,9.10
2007,04,06,05,29,9.10
2007,04,06,05,30,9.10
2007,04,06,05,31,9.10
2007,04,06,05,32,9.00
2007,04,06,05,33,9.00
2007,04,06,05,34,9.00
2007,04,06,05,35,9.00
2007,04,06,05,36,9.00
2007,04,06,05,37,9.00
2007,04,06,05,38,9.00
2007,04,06,05,39,8.90
2007,04,06,05,40,8.90
2007,04,06,05,41,8.90
2007,04,06,05,42,8.90
2007,04,06,05,43,8.90
2007,04,06,05,44,8.90
2007,04,06,05,45,8.90
2007,04,06,05,46,8.90
2007,04,06,05,47,8.90
2007,04,06,05,48,8.90
2007,04,06,05,49,8.90
2007,04,06,05,50,8.90
2007,04,06,05,51,9.00
2007,04,06,05,52,9.00
2007,04,06,05,53,9.10
2007,04,06,05,54,9.20
2007,04,06,05,55,9.20
2007,04,06,05,56,9.30
2007,04,06,05,57,9.40
2007,04,06,05,58,9.50
2007,04,06,05,59,9.50
2007,04,06,06,00,9.50
2007,04,06,06,01,9.50
2007,04,06,06,02,9.40
2007,04,06,06,03,9.40
2007,04,06,06,04,9.40
2007,04,06,06,05,9.30
2007,04,06,06,06,9.30
2007,04,06,06,07,9.30
2007,04,06,06,08,9.30
2007,04,06,06,09,9.20
2007,04,06,06,10,9.10
2007,04,06,06,11,9.10
2007,04,06,06,12,9.00
2007,04,06,06,13,9.00
2007,04,06,06,14,9.00
2007,04,06,06,15,9.00
2007,04,06,06,16,9.00
2007,04,06,06,17,9.00
2007,04,06,06,18,8.90
2007,04,06,06,19,8.90
2007,04,06,06,20,8.90
2007,04,06,06,21,8.90
2007,04,06,06,22,8.90
2007,04,06,06,23,8.90
2007,04,06,06,24,8.90
2007,04,06,06,25,8.90
2007,04,06,06,26,8.90
2007,04,06,06,27,8.90
2007,04,06,06,28,8.90
2007,04,06,06,29,8.90
2007,04,06,06,30,9.00
2007,04,06,06,31,9.00
2007,04,06,06,32,9.00
2007,04,06,06,33,9.00
2007,04,06,06,34,9.00
2007,04,06,06,35,9.00
2007,04,06,06,36,9.00
2007,04,06,06,37,9.00
2007,04,06,06,38,9.00
2007,04,06,06,39,8.90
2007,04,06,06,40,8.90
2007,04,06,06,41,9.00
2007,04,06,06,42,9.00
2007,04,06,06,43,9.00
2007,04,06,06,44,9.00
2007,04,06,06,45,9.00
2007,04,06,06,46,9.00
2007,04,06,06,47,9.00
2007,04,06,06,48,9.00
2007,04,06,06,49,9.00
2007,04,06,06,50,9.00
2007,04,06,06,51,9.00
2007,04,06,06,52,9.00
2007,04,06,06,53,9.00
2007,04,06,06,54,8.90
2007,04,06,06,55,8.90
2007,04,06,06,56,8.90
2007,04,06,06,57,9.00
2007,04,06,06,58,9.00
2007,04,06,06,59,9.00
2007,04,06,07,00,9.00
2007,04,06,07,01,9.10
2007,04,06,07,02,9.10
2007,04,06,07,03,9.10
2007,04,06,07,04,9.10
2007,04,06,07,05,9.10
2007,04,06,07,06,9.10
2007,04,06,07,07,9.10
2007,04,06,07,08,9.10
2007,04,06,07,09,9.10
2007,04,06,07,10,9.10
2007,04,06,07,11,9.10
2007,04,06,07,12,9.20
2007,04,06,07,13,9.20
2007,04,06,07,14,9.20
2007,04,06,07,15,9.20
2007,04,06,07,16,9.20
2007,04,06,07,17,9.20
2007,04,06,07,18,9.20
2007,04,06,07,19,9.20
2007,04,06,07,20,9.30
2007,04,06,07,21,9.30
2007,04,06,07,22,9.30
2007,04,06,07,23,9.40
2007,04,06,07,24,9.40
2007,04,06,07,25,9.40
2007,04,06,07,26,9.40
2007,04,06,07,27,9.30
2007,04,06,07,28,9.30
2007,04,06,07,29,9.30
2007,04,06,07,30,9.30
2007,04,06,07,31,9.30
2007,04,06,07,32,9.30
2007,04,06,07,33,9.30
2007,04,06,07,34,9.40
2007,04,06,07,35,9.40
2007,04,06,07,36,9.50
2007,04,06,07,37,9.60
2007,04,06,07,38,9.70
2007,04,06,07,39,9.70
2007,04,06,07,40,9.80
2007,04,06,07,41,9.90
2007,04,06,07,42,9.90
2007,04,06,07,43,10.00
2007,04,06,07,44,10.10
2007,04,06,07,45,10.10
2007,04,06,07,46,10.10
2007,04,06,07,47,10.20
2007,04,06,07,48,10.20
2007,04,06,07,49,10.30
2007,04,06,07,50,10.30
2007,04,06,07,51,10.30
2007,04,06,07,52,10.40
2007,04,06,07,53,10.40
2007,04,06,07,54,10.40
2007,04,06,07,55,10.40
2007,04,06,07,56,10.30
2007,04,06,07,57,10.30
2007,04,06,07,58,10.30
2007,04,06,07,59,10.20
2007,04,06,08,00,10.20
2007,04,06,08,01,10.20
2007,04,06,08,02,10.10
2007,04,06,08,03,10.10
2007,04,06,08,04,10.10
2007,04,06,08,05,10.10
2007,04,06,08,06,10.10
2007,04,06,08,07,10.10
2007,04,06,08,08,10.10
2007,04,06,08,09,10.10
2007,04,06,08,10,10.20
2007,04,06,08,11,10.20
2007,04,06,08,12,10.30
2007,04,06,08,13,10.30
2007,04,06,08,14,10.30
2007,04,06,08,15,10.40
2007,04,06,08,16,10.40
2007,04,06,08,17,10.50
2007,04,06,08,18,10.60
2007,04,06,08,19,10.60
2007,04,06,08,20,10.60
2007,04,06,08,21,10.60
2007,04,06,08,22,10.60
2007,04,06,08,23,10.70
2007,04,06,08,24,10.70
2007,04,06,08,25,10.70
2007,04,06,08,26,10.70
2007,04,06,08,27,10.70
2007,04,06,08,28,10.70
2007,04,06,08,29,10.70
2007,04,06,08,30,10.70
2007,04,06,08,31,10.70
2007,04,06,08,32,10.70
2007,04,06,08,33,10.70
2007,04,06,08,34,10.80
2007,04,06,08,35,10.90
2007,04,06,08,36,10.90
2007,04,06,08,37,10.90
2007,04,06,08,38,11.00
2007,04,06,08,39,11.10
2007,04,06,08,40,11.10
2007,04,06,08,41,11.20
2007,04,06,08,42,11.20
2007,04,06,08,43,11.30
2007,04,06,08,44,11.40
2007,04,06,08,45,11.40
2007,04,06,08,46,11.40
2007,04,06,08,47,11.40
2007,04,06,08,48,11.50
2007,04,06,08,49,11.60
2007,04,06,08,50,11.60
2007,04,06,08,51,11.60
2007,04,06,08,52,11.60
2007,04,06,08,53,11.60
2007,04,06,08,54,11.70
2007,04,06,08,55,11.80
2007,04,06,08,56,11.80
2007,04,06,08,57,11.80
2007,04,06,08,58,11.80
2007,04,06,08,59,11.80
2007,04,06,09,00,11.80
2007,04,06,09,01,11.90
2007,04,06,09,02,11.90
2007,04,06,09,03,11.90
2007,04,06,09,04,11.90
2007,04,06,09,05,11.90
2007,04,06,09,06,11.90
2007,04,06,09,07,11.90
2007,04,06,09,08,11.90
2007,04,06,09,09,11.90
2007,04,06,09,10,11.80
2007,04,06,09,11,11.80
2007,04,06,09,12,11.80
2007,04,06,09,13,11.80
2007,04,06,09,14,11.80
2007,04,06,09,15,11.80
2007,04,06,09,16,11.80
2007,04,06,09,17,11.90
2007,04,06,09,18,11.90
2007,04,06,09,19,12.00
2007,04,06,09,20,12.00
2007,04,06,09,21,11.90
2007,04,06,09,22,11.90
2007,04,06,09,23,11.90
2007,04,06,09,24,11.80
2007,04,06,09,25,11.80
2007,04,06,09,26,11.70
2007,04,06,09,27,11.70
2007,04,06,09,28,11.70
2007,04,06,09,29,11.70
2007,04,06,09,30,11.70
2007,04,06,09,31,11.70
2007,04,06,09,32,11.70
2007,04,06,09,33,11.70
2007,04,06,09,34,11.70
2007,04,06,09,35,11.80
2007,04,06,09,36,11.80
2007,04,06,09,37,11.80
2007,04,06,09,38,11.90
2007,04,06,09,39,12.00
2007,04,06,09,40,12.00
2007,04,06,09,41,12.10
2007,04,06,09,42,12.10
2007,04,06,09,43,12.20
2007,04,06,09,44,12.30
2007,04,06,09,45,12.30
2007,04,06,09,46,12.30
2007,04,06,09,47,12.30
2007,04,06,09,48,12.30
2007,04,06,09,49,12.30
2007,04,06,09,50,12.30
2007,04,06,09,51,12.20
2007,04,06,09,52,12.20
2007,04,06,09,53,12.20
2007,04,06,09,54,12.20
2007,04,06,09,55,12.20
2007,04,06,09,56,12.20
2007,04,06,09,57,12.30
2007,04,06,09,58,12.20
2007,04,06,09,59,12.20
2007,04,06,10,00,12.20
2007,04,06,10,01,12.20
2007,04,06,10,02,12.20
2007,04,06,10,03,12.20
2007,04,06,10,04,12.20
2007,04,06,10,05,12.30
2007,04,06,10,06,12.30
2007,04,06,10,07,12.30
2007,04,06,10,08,12.30
2007,04,06,10,09,12.20
2007,04,06,10,10,12.10
2007,04,06,10,11,12.10
2007,04,06,10,12,12.10
2007,04,06,10,13,12.00
2007,04,06,10,14,12.00
2007,04,06,10,15,12.10
2007,04,06,10,16,12.10
2007,04,06,10,17,12.10
2007,04,06,10,18,12.10
2007,04,06,10,19,12.10
2007,04,06,10,20,12.00
2007,04,06,10,21,12.00
2007,04,06,10,22,12.00
2007,04,06,10,23,12.00
2007,04,06,10,24,12.00
2007,04,06,10,25,12.00
2007,04,06,10,26,12.00
2007,04,06,10,27,12.00
2007,04,06,10,28,12.00
2007,04,06,10,29,11.90
2007,04,06,10,30,11.90
2007,04,06,10,31,12.00
2007,04,06,10,32,12.00
2007,04,06,10,33,12.10
2007,04,06,10,34,12.10
2007,04,06,10,35,12.20
2007,04,06,10,36,12.20
2007,04,06,10,37,12.20
2007,04,06,10,38,12.30
2007,04,06,10,39,12.30
2007,04,06,10,40,12.30
2007,04,06,10,41,12.30
2007,04,06,10,42,12.30
2007,04,06,10,43,12.40
2007,04,06,10,44,12.40
2007,04,06,10,45,12.40
2007,04,06,10,46,12.40
2007,04,06,10,47,12.40
2007,04,06,10,48,12.30
2007,04,06,10,49,12.30
2007,04,06,10,50,12.30
2007,04,06,10,51,12.40
2007,04,06,10,52,12.40
2007,04,06,10,53,12.40
2007,04,06,10,54,12.40
2007,04,06,10,55,12.50
2007,04,06,10,56,12.50
2007,04,06,10,57,12.50
2007,04,06,10,58,12.50
2007,04,06,10,59,12.50
2007,04,06,11,00,12.60
2007,04,06,11,01,12.60
2007,04,06,11,02,12.60
2007,04,06,11,03,12.60
2007,04,06,11,04,12.60
2007,04,06,11,05,12.70
2007,04,06,11,06,12.70
2007,04,06,11,07,12.80
2007,04,06,11,08,12.80
2007,04,06,11,09,12.80
2007,04,06,11,10,12.80
2007,04,06,11,11,12.80
2007,04,06,11,12,12.80
2007,04,06,11,13,12.80
2007,04,06,11,14,12.80
2007,04,06,11,15,12.80
2007,04,06,11,16,12.80
2007,04,06,11,17,12.90
2007,04,06,11,18,12.90
2007,04,06,11,19,13.00
2007,04,06,11,20,13.10
2007,04,06,11,21,13.10
2007,04,06,11,22,13.20
2007,04,06,11,23,13.30
2007,04,06,11,24,13.30
2007,04,06,11,25,13.30
2007,04,06,11,26,13.30
2007,04,06,11,27,13.30
2007,04,06,11,28,13.30
2007,04,06,11,29,13.40
2007,04,06,11,30,13.40
2007,04,06,11,31,13.50
2007,04,06,11,32,13.50
2007,04,06,11,33,13.50
2007,04,06,11,34,13.60
2007,04,06,11,35,13.70
2007,04,06,11,36,13.70
2007,04,06,11,37,13.70
2007,04,06,11,38,13.80
2007,04,06,11,39,13.80
2007,04,06,11,40,13.90
2007,04,06,11,41,13.90
2007,04,06,11,42,14.00
2007,04,06,11,43,14.00
2007,04,06,11,44,14.10
2007,04,06,11,45,14.10
2007,04,06,11,46,14.10
2007,04,06,11,47,14.10
2007,04,06,11,48,14.10
2007,04,06,11,49,14.10
2007,04,06,11,50,14.10
2007,04,06,11,51,14.00
2007,04,06,11,52,14.00
2007,04,06,11,53,14.10
2007,04,06,11,54,14.10
2007,04,06,11,55,14.10
2007,04,06,11,56,14.20
2007,04,06,11,57,14.20
2007,04,06,11,58,14.30
2007,04,06,11,59,14.40
2007,04,06,12,00,14.40
2007,04,06,12,01,14.50
2007,04,06,12,02,14.50
2007,04,06,12,03,14.60
2007,04,06,12,04,14.60
2007,04,06,12,05,14.60
2007,04,06,12,06,14.70
2007,04,06,12,07,14.70
2007,04,06,12,08,14.70
2007,04,06,12,09,14.80
2007,04,06,12,10,14.80
2007,04,06,12,11,14.80
2007,04,06,12,12,14.80
2007,04,06,12,13,14.90
2007,04,06,12,14,14.90
2007,04,06,12,15,14.90
2007,04,06,12,16,14.90
2007,04,06,12,17,14.90
2007,04,06,12,18,14.80
2007,04,06,12,19,14.80
2007,04,06,12,20,14.80
2007,04,06,12,21,14.80
2007,04,06,12,22,14.80
2007,04,06,12,23,14.80
2007,04,06,12,24,14.80
2007,04,06,12,25,14.90
2007,04,06,12,26,15.00
2007,04,06,12,27,15.00
2007,04,06,12,28,15.10
2007,04,06,12,29,15.10
2007,04,06,12,30,15.10
2007,04,06,12,31,15.20
2007,04,06,12,32,15.30
2007,04,06,12,33,15.30
2007,04,06,12,34,15.30
2007,04,06,12,35,15.30
2007,04,06,12,36,15.30
2007,04,06,12,37,15.20
2007,04,06,12,38,15.20
2007,04,06,12,39,15.20
2007,04,06,12,40,15.20
2007,04,06,12,41,15.30
2007,04,06,12,42,15.30
2007,04,06,12,43,15.30
2007,04,06,12,44,15.30
2007,04,06,12,45,15.20
2007,04,06,12,46,15.10
2007,04,06,12,47,15.10
2007,04,06,12,48,15.00
2007,04,06,12,49,15.00
2007,04,06,12,50,15.00
2007,04,06,12,51,14.90
2007,04,06,12,52,14.80
2007,04,06,12,53,14.80
2007,04,06,12,54,14.80
2007,04,06,12,55,14.80
2007,04,06,12,56,14.80
2007,04,06,12,57,14.80
2007,04,06,12,58,14.80
2007,04,06,12,59,14.80
2007,04,06,13,00,14.80
2007,04,06,13,01,14.80
2007,04,06,13,02,14.80
2007,04,06,13,03,14.80
2007,04,06,13,04,14.90
2007,04,06,13,05,14.90
2007,04,06,13,06,14.90
2007,04,06,13,07,14.90
2007,04,06,13,08,14.90
2007,04,06,13,09,14.90
2007,04,06,13,10,14.90
2007,04,06,13,11,15.00
2007,04,06,13,12,15.00
2007,04,06,13,13,15.00
2007,04,06,13,14,15.10
2007,04,06,13,15,15.10
2007,04,06,13,16,15.10
2007,04,06,13,17,15.10
2007,04,06,13,18,15.10
2007,04,06,13,19,15.10
2007,04,06,13,20,15.20
2007,04,06,13,21,15.20
2007,04,06,13,22,15.20
2007,04,06,13,23,15.30
2007,04,06,13,24,15.30
2007,04,06,13,25,15.20
2007,04,06,13,26,15.20
2007,04,06,13,27,15.20
2007,04,06,13,28,15.20
2007,04,06,13,29,15.30
2007,04,06,13,30,15.30
2007,04,06,13,31,15.30
2007,04,06,13,32,15.40
2007,04,06,13,33,15.40
2007,04,06,13,34,15.40
2007,04,06,13,35,15.40
2007,04,06,13,36,15.40
2007,04,06,13,37,15.50
2007,04,06,13,38,15.50
2007,04,06,13,39,15.50
2007,04,06,13,40,15.50
2007,04,06,13,41,15.60
2007,04,06,13,42,15.60
2007,04,06,13,43,15.60
2007,04,06,13,44,15.60
2007,04,06,13,45,15.60
2007,04,06,13,46,15.60
2007,04,06,13,47,15.70
2007,04,06,13,48,15.70
2007,04,06,13,49,15.80
2007,04,06,13,50,15.80
2007,04,06,13,51,15.80
2007,04,06,13,52,15.90
2007,04,06,13,53,15.90
2007,04,06,13,54,16.00
2007,04,06,13,55,16.10
2007,04,06,13,56,16.10
2007,04,06,13,57,16.20
2007,04,06,13,58,16.30
2007,04,06,13,59,16.30
2007,04,06,14,00,16.40
2007,04,06,14,01,16.40
2007,04,06,14,02,16.40
2007,04,06,14,03,16.30
2007,04,06,14,04,16.20
2007,04,06,14,05,16.20
2007,04,06,14,06,16.10
2007,04,06,14,07,16.10
2007,04,06,14,08,16.10
2007,04,06,14,09,16.10
2007,04,06,14,10,16.10
2007,04,06,14,11,16.10
2007,04,06,14,12,16.10
2007,04,06,14,13,16.10
2007,04,06,14,14,16.10
2007,04,06,14,15,16.10
2007,04,06,14,16,16.20
2007,04,06,14,17,16.20
2007,04,06,14,18,16.20
2007,04,06,14,19,16.20
2007,04,06,14,20,16.30
2007,04,06,14,21,16.30
2007,04,06,14,22,16.30
2007,04,06,14,23,16.30
2007,04,06,14,24,16.40
2007,04,06,14,25,16.40
2007,04,06,14,26,16.40
2007,04,06,14,27,16.50
2007,04,06,14,28,16.60
2007,04,06,14,29,16.60
2007,04,06,14,30,16.60
2007,04,06,14,31,16.60
2007,04,06,14,32,16.70
2007,04,06,14,33,16.70
2007,04,06,14,34,16.70
2007,04,06,14,35,16.70
2007,04,06,14,36,16.70
2007,04,06,14,37,16.80
2007,04,06,14,38,16.80
2007,04,06,14,39,16.90
2007,04,06,14,40,16.90
2007,04,06,14,41,17.00
2007,04,06,14,42,17.10
2007,04,06,14,43,17.10
2007,04,06,14,44,17.10
2007,04,06,14,45,17.20
2007,04,06,14,46,17.10
2007,04,06,14,47,17.10
2007,04,06,14,48,17.00
2007,04,06,14,49,17.00
2007,04,06,14,50,17.10
2007,04,06,14,51,17.10
2007,04,06,14,52,17.10
2007,04,06,14,53,17.10
2007,04,06,14,54,17.10
2007,04,06,14,55,17.10
2007,04,06,14,56,17.10
2007,04,06,14,57,17.10
2007,04,06,14,58,17.10
2007,04,06,14,59,17.10
2007,04,06,15,00,17.20
2007,04,06,15,01,17.20
2007,04,06,15,02,17.20
2007,04,06,15,03,17.10
2007,04,06,15,04,17.10
2007,04,06,15,05,17.20
2007,04,06,15,06,17.20
2007,04,06,15,07,17.20
2007,04,06,15,08,17.20
2007,04,06,15,09,17.30
2007,04,06,15,10,17.30
2007,04,06,15,11,17.30
2007,04,06,15,12,17.30
2007,04,06,15,13,17.20
2007,04,06,15,14,17.20
2007,04,06,15,15,17.20
2007,04,06,15,16,17.30
2007,04,06,15,17,17.30
2007,04,06,15,18,17.30
2007,04,06,15,19,17.20
2007,04,06,15,20,17.20
2007,04,06,15,21,17.20
2007,04,06,15,22,17.10
2007,04,06,15,23,17.10
2007,04,06,15,24,17.10
2007,04,06,15,25,17.10
2007,04,06,15,26,17.10
2007,04,06,15,27,17.10
2007,04,06,15,28,17.10
2007,04,06,15,29,17.10
2007,04,06,15,30,17.10
2007,04,06,15,31,17.10
2007,04,06,15,32,17.10
2007,04,06,15,33,17.20
2007,04,06,15,34,17.20
2007,04,06,15,35,17.20
2007,04,06,15,36,17.20
2007,04,06,15,37,17.30
2007,04,06,15,38,17.30
2007,04,06,15,39,17.30
2007,04,06,15,40,17.30
2007,04,06,15,41,17.30
2007,04,06,15,42,17.30
2007,04,06,15,43,17.30
2007,04,06,15,44,17.30
2007,04,06,15,45,17.30
2007,04,06,15,46,17.40
2007,04,06,15,47,17.40
2007,04,06,15,48,17.40
2007,04,06,15,49,17.50
2007,04,06,15,50,17.50
2007,04,06,15,51,17.50
2007,04,06,15,52,17.50
2007,04,06,15,53,17.60
2007,04,06,15,54,17.60
2007,04,06,15,55,17.70
2007,04,06,15,56,17.70
2007,04,06,15,57,17.80
2007,04,06,15,58,17.80
2007,04,06,15,59,17.90
2007,04,06,16,00,17.90
2007,04,06,16,01,17.90
2007,04,06,16,02,17.90
2007,04,06,16,03,18.00
2007,04,06,16,04,18.10
2007,04,06,16,05,18.10
2007,04,06,16,06,18.10
2007,04,06,16,07,18.20
2007,04,06,16,08,18.20
2007,04,06,16,09,18.20
2007,04,06,16,10,18.20
2007,04,06,16,11,18.20
2007,04,06,16,12,18.20
2007,04,06,16,13,18.20
2007,04,06,16,14,18.20
2007,04,06,16,15,18.30
2007,04,06,16,16,18.30
2007,04,06,16,17,18.30
2007,04,06,16,18,18.30
2007,04,06,16,19,18.30
2007,04,06,16,20,18.30
2007,04,06,16,21,18.30
2007,04,06,16,22,18.30
2007,04,06,16,23,18.40
2007,04,06,16,24,18.40
2007,04,06,16,25,18.40
2007,04,06,16,26,18.40
2007,04,06,16,27,18.40
2007,04,06,16,28,18.40
2007,04,06,16,29,18.40
2007,04,06,16,30,18.30
2007,04,06,16,31,18.30
2007,04,06,16,32,18.20
2007,04,06,16,33,18.20
2007,04,06,16,34,18.20
2007,04,06,16,35,18.30
2007,04,06,16,36,18.30
2007,04,06,16,37,18.30
2007,04,06,16,38,18.30
2007,04,06,16,39,18.30
2007,04,06,16,40,18.30
2007,04,06,16,41,18.30
2007,04,06,16,42,18.30
2007,04,06,16,43,18.20
2007,04,06,16,44,18.20
2007,04,06,16,45,18.20
2007,04,06,16,46,18.20
2007,04,06,16,47,18.20
2007,04,06,16,48,18.20
2007,04,06,16,49,18.20
2007,04,06,16,50,18.20
2007,04,06,16,51,18.20
2007,04,06,16,52,18.20
2007,04,06,16,53,18.20
2007,04,06,16,54,18.20
2007,04,06,16,55,18.20
2007,04,06,16,56,18.30
2007,04,06,16,57,18.30
2007,04,06,16,58,18.40
2007,04,06,16,59,18.40
2007,04,06,17,00,18.40
2007,04,06,17,01,18.40
2007,04,06,17,02,18.40
2007,04,06,17,03,18.40
2007,04,06,17,04,18.40
2007,04,06,17,05,18.40
2007,04,06,17,06,18.40
2007,04,06,17,07,18.30
2007,04,06,17,08,18.30
2007,04,06,17,09,18.30
2007,04,06,17,10,18.20
2007,04,06,17,11,18.20
2007,04,06,17,12,18.20
2007,04,06,17,13,18.20
2007,04,06,17,14,18.20
2007,04,06,17,15,18.20
2007,04,06,17,16,18.30
2007,04,06,17,17,18.30
2007,04,06,17,18,18.30
2007,04,06,17,19,18.40
2007,04,06,17,20,18.40
2007,04,06,17,21,18.40
2007,04,06,17,22,18.30
2007,04,06,17,23,18.30
2007,04,06,17,24,18.30
2007,04,06,17,25,18.30
2007,04,06,17,26,18.30
2007,04,06,17,27,18.30
2007,04,06,17,28,18.20
2007,04,06,17,29,18.20
2007,04,06,17,30,18.20
2007,04,06,17,31,18.20
2007,04,06,17,32,18.20
2007,04,06,17,33,18.20
2007,04,06,17,34,18.30
2007,04,06,17,35,18.30
2007,04,06,17,36,18.30
2007,04,06,17,37,18.30